TimeMDT,TemperatureF,Dew PointF,Humidity,Sea Level PressureIn,VisibilityMPH,Wind Direction,Wind SpeedMPH,Gust SpeedMPH,PrecipitationIn,Events,Conditions,WindDirDegrees,DateUTC
12:15 AM,39.2,23.0,52,30.07,10.0,South,11.5,-,N/A,,Overcast,190,2013-10-20 06:15:00
12:35 AM,39.2,24.8,56,30.06,10.0,SSW,9.2,-,N/A,,Overcast,200,2013-10-20 06:35:00
12:55 AM,37.4,24.8,60,30.05,10.0,South,9.2,-,N/A,,Overcast,190,2013-10-20 06:55:00
1:15 AM,39.2,24.8,56,30.06,10.0,South,8.1,-,N/A,,Overcast,170,2013-10-20 07:15:00
1:35 AM,39.2,24.8,56,30.05,10.0,South,6.9,-,N/A,,Partly Cloudy,170,2013-10-20 07:35:00
1:55 AM,37.4,24.8,60,30.05,10.0,SSW,5.8,-,N/A,,Clear,200,2013-10-20 07:55:00
2:15 AM,39.2,24.8,56,30.05,10.0,SSW,8.1,-,N/A,,Clear,210,2013-10-20 08:15:00
2:35 AM,37.4,24.8,60,30.05,10.0,South,6.9,-,N/A,,Partly Cloudy,190,2013-10-20 08:35:00
2:55 AM,39.2,24.8,56,30.05,10.0,South,5.8,-,N/A,,Partly Cloudy,190,2013-10-20 08:55:00
3:15 AM,39.2,24.8,56,30.05,10.0,SW,6.9,-,N/A,,Mostly Cloudy,220,2013-10-20 09:15:00
3:35 AM,39.2,24.8,56,30.06,10.0,Calm,Calm,-,N/A,,Overcast,0,2013-10-20 09:35:00
3:55 AM,39.2,24.8,56,30.06,10.0,SSW,3.5,-,N/A,,Overcast,210,2013-10-20 09:55:00
4:15 AM,41.0,24.8,53,30.06,10.0,NNE,5.8,-,N/A,,Overcast,20,2013-10-20 10:15:00
4:35 AM,37.4,28.4,70,30.05,10.0,North,8.1,-,N/A,,Overcast,360,2013-10-20 10:35:00
4:55 AM,37.4,28.4,70,30.05,10.0,NNE,3.5,-,N/A,,Overcast,30,2013-10-20 10:55:00
5:15 AM,35.6,28.4,75,30.05,10.0,Calm,Calm,-,N/A,,Overcast,0,2013-10-20 11:15:00
5:35 AM,35.6,28.4,75,30.05,10.0,Calm,Calm,-,N/A,,Overcast,0,2013-10-20 11:35:00
5:55 AM,33.8,26.6,75,30.05,10.0,NNE,3.5,-,N/A,,Mostly Cloudy,20,2013-10-20 11:55:00
6:15 AM,33.8,26.6,75,30.05,10.0,North,5.8,-,N/A,,Mostly Cloudy,350,2013-10-20 12:15:00
6:51 AM,32.0,28.4,87,30.06,10.0,North,10.4,-,N/A,,Mostly Cloudy,360,2013-10-20 12:51:00
7:51 AM,30.2,26.6,86,30.08,10.0,North,6.9,-,N/A,,Mostly Cloudy,360,2013-10-20 13:51:00
8:51 AM,33.8,28.4,81,30.10,10.0,North,6.9,-,N/A,,Scattered Clouds,360,2013-10-20 14:51:00
9:51 AM,42.8,26.6,53,30.11,10.0,North,6.9,-,N/A,,Partly Cloudy,10,2013-10-20 15:51:00
10:52 AM,46.4,24.8,43,30.10,10.0,North,9.2,-,N/A,,Partly Cloudy,10,2013-10-20 16:52:00
11:57 AM,48.2,23.0,37,30.09,10.0,NNE,10.4,-,N/A,,Clear,20,2013-10-20 17:57:00
11:59 AM,48.2,23.0,37,30.09,10.0,NNE,10.4,-,N/A,,Scattered Clouds,20,2013-10-20 17:59:00
12:52 PM,48.2,21.2,34,30.09,10.0,Calm,Calm,-,N/A,,Scattered Clouds,0,2013-10-20 18:52:00
1:57 PM,48.2,21.2,34,30.07,10.0,North,6.9,-,N/A,,Partly Cloudy,360,2013-10-20 19:57:00
2:55 PM,48.2,21.2,34,30.07,10.0,North,5.8,-,N/A,,Mostly Cloudy,360,2013-10-20 20:55:00
3:59 PM,51.8,21.2,30,30.07,10.0,Calm,Calm,-,N/A,,Scattered Clouds,0,2013-10-20 21:59:00
4:52 PM,50.0,21.2,32,30.07,10.0,NW,6.9,-,N/A,,Clear,310,2013-10-20 22:52:00
5:56 PM,46.4,21.2,37,30.09,10.0,WNW,6.9,-,N/A,,Clear,300,2013-10-20 23:56:00
6:52 PM,42.8,21.2,42,30.10,10.0,WNW,5.8,-,N/A,,Clear,300,2013-10-21 00:52:00
7:51 PM,35.6,23.0,60,30.11,10.0,ENE,9.2,-,N/A,,Clear,60,2013-10-21 01:51:00
8:55 PM,32.0,23.0,69,30.12,10.0,North,4.6,-,N/A,,Clear,10,2013-10-21 02:55:00
9:15 PM,28.4,24.8,86,30.13,10.0,Calm,Calm,-,N/A,,Clear,0,2013-10-21 03:15:00
10:35 PM,30.2,24.8,80,30.16,10.0,Calm,Calm,-,N/A,,Clear,0,2013-10-21 04:35:00
10:55 PM,28.4,23.0,80,30.16,10.0,North,3.5,-,N/A,,Partly Cloudy,10,2013-10-21 04:55:00
11:15 PM,26.6,23.0,86,30.16,10.0,North,8.1,-,N/A,,Mostly Cloudy,350,2013-10-21 05:15:00
11:35 PM,28.4,24.8,86,30.17,10.0,ENE,6.9,-,N/A,,Mostly Cloudy,60,2013-10-21 05:35:00
11:55 PM,28.4,24.8,86,30.17,10.0,Calm,Calm,-,N/A,,Partly Cloudy,0,2013-10-21 05:55:00